Temperature
18 18 18 18 18 18 18 18 18 17 17 18 18 18 18 18 17 17 17 18 17 17 17 17 17 17 17 17 17 17 16 16 16 16 16 16 16 16
18 18 18 18 18 18 18 18 17 17 17 18 18 18 17 17 17 17 17 17 17 17 17 17 17 17 16 16 16 16 16 16 16 16 16 15 15 15
18 18 18 18 18 18 18 17 17 17 17 17 17 17 17 17 17 17 17 17 17 17 17 17 16 16 16 16 16 16 16 16 16 15 15 15 15 15
18 18 18 18 18 17 17 17 17 17 17 17 17 17 17 17 17 17 17 17 17 17 17 16 16 16 16 16 16 16 16 16 15 15 15 15 15 15
17 17 17 17 17 17 17 17 17 17 17 17 17 17 16 16 16 16 16 16 16 16 16 16 16 16 16 16 16 16 16 15 15 15 15 15 15 14
17 17 17 17 17 17 17 17 17 17 16 16 16 16 16 16 16 16 16 16 16 16 16 16 16 15 15 15 15 15 15 15 15 15 15 15 14 14
17 17 17 17 17 17 16 16 16 16 16 16 16 16 16 16 16 15 15 15 15 15 15 15 15 15 15 15 15 15 15 15 15 14 14 14 14 14
17 17 17 16 16 16 16 16 16 16 16 16 15 15 15 15 15 15 15 15 15 15 15 15 14 15 15 15 14 14 14 14 14 14 14 14 14 14
16 16 16 16 16 16 16 16 16 15 15 15 15 15 15 15 15 14 14 14 14 14 14 14 14 14 14 14 14 14 14 14 14 13 13 13 13 13
16 16 16 16 16 15 15 15 15 15 15 15 15 15 14 14 14 14 14 14 14 14 14 13 14 14 14 14 14 14 14 13 13 13 13 13 13 13
15 15 15 15 15 15 15 15 15 15 15 14 14 14 14 14 14 14 14 13 13 13 13 13 13 13 13 13 13 13 13 13 13 13 12 12 12 12
15 15 15 15 15 15 14 14 14 14 14 14 14 14 14 13 13 13 13 13 13 12 13 12 12 12 12 12 12 12 12 12 12 12 12 12 12 11
15 15 14 14 14 14 14 14 14 14 14 13 13 13 13 13 13 13 13 12 12 12 12 12 12 12 12 12 12 12 12 12 12 12 12 12 11 11
14 14 14 14 14 14 14 13 13 13 13 13 13 12 12 12 12 12 12 12 12 12 12 12 11 11 11 11 11 11 11 11 11 11 11 11 11 11
14 14 14 13 13 13 13 13 13 13 12 12 12 12 12 12 12 12 12 12 11 11 11 11 11 11 11 11 11 11 11 11 11 11 11 11 11 11
13 13 13 13 13 13 13 13 12 12 12 12 11 11 11 11 11 11 11 11 11 11 11 11 11 11 11 11 10 10 10 10 10 10 10 10 10 10
13 13 12 12 12 12 12 12 12 11 11 11 11 11 11 11 11 11 10 10 10 10 10 10 10 10 10 10 10 10 10 10 10 10 10 10 10 10
12 12 12 12 12 12 11 11 11 11 11 11 10 10 10 10 10 10 10 10 9 10 10 10 10 10 10 10 10 10 10 10 10 10 9 9 9 10
12 12 11 11 11 11 11 11 10 10 10 10 10 10 10 9 9 9 9 9 9 9 9 9 9 9 9 9 9 9 9 9 9 9 9 9 9 9
11 11 11 11 10 10 10 10 10 10 10 10 9 9 9 9 9 9 9 9 9 9 9 9 9 9 9 9 8 9 9 9 9 9 9 9 9 9
11 11 10 10 10 10 10 10 9 9 9 9 9 9 9 9 8 8 8 8 8 8 8 8 9 9 8 8 8 8 9 9 9 9 9 9 8 8
10 10 10 10 10 9 9 9 9 9 9 9 9 8 8 8 8 8 8 8 8 8 8 8 8 8 8 8 8 8 8 9 9 8 8 8 8 8
10 10 9 9 9 9 9 9 9 9 9 9 8 8 8 8 8 8 8 8 8 8 8 8 8 8 8 8 8 8 8 8 8 8 8 8 8 8
Wind_Speed
6 6 5 4 4 4 4 4 4 3 4 4 2 2 2 3 6 6 7 8 10 10 10 10 10 10 10 10 10 10 10 10 10 11 11 12 12 12
5 5 4 4 3 3 4 4 4 4 4 4 3 3 2 2 4 5 6 7 8 9 9 10 10 10 9 10 10 10 10 10 10 10 10 11 11 11
4 5 5 4 3 3 3 3 3 4 5 4 3 2 2 3 2 3 4 5 6 8 9 10 10 10 10 10 9 9 9 10 10 10 10 10 10 10
6 5 5 4 4 3 3 4 4 4 4 5 3 2 3 3 3 3 3 3 4 7 9 9 10 10 10 10 10 10 10 10 10 10 10 9 9 9
6 6 5 5 4 4 3 3 3 3 3 3 4 3 3 2 2 2 2 2 3 5 6 8 8 9 9 10 10 10 10 10 10 10 10 10 10 10
5 5 5 5 5 5 4 4 3 2 2 2 3 3 3 2 1 2 2 2 3 2 3 4 6 8 9 9 10 10 10 10 10 9 10 10 10 10
4 4 5 5 7 6 4 4 3 3 3 3 3 3 2 2 3 3 3 3 3 2 2 2 2 3 5 8 10 10 11 11 10 10 10 10 10 10
3 3 3 4 5 5 5 5 5 5 5 4 4 4 5 4 3 3 3 2 3 2 2 3 2 3 4 6 9 11 11 10 10 10 11 10 10 9
4 3 3 3 3 3 3 4 4 6 6 6 6 6 5 5 4 4 4 4 5 4 2 3 2 4 4 7 9 10 10 10 10 10 10 9 9 9
3 3 4 3 3 3 2 2 3 4 5 5 5 6 5 5 6 6 5 4 3 2 3 3 3 4 4 4 7 9 9 10 9 9 9 9 9 9
3 3 4 3 4 3 2 2 3 4 4 4 4 4 5 5 4 2 2 2 3 3 2 3 2 2 3 4 5 8 10 10 10 9 9 9 9 8
2 2 3 4 3 2 3 3 4 4 3 3 3 3 3 3 3 4 5 4 3 3 3 3 2 1 2 2 3 4 5 7 9 9 10 10 9 6
2 2 3 3 2 3 3 4 6 4 2 2 2 2 2 2 2 2 3 4 4 4 3 3 2 2 3 3 2 3 4 3 4 6 9 10 10 9
3 3 3 3 4 4 3 4 4 2 1 1 1 2 2 2 2 2 2 3 3 4 4 3 2 3 2 2 3 2 2 3 3 3 5 7 8 11
2 3 3 3 2 3 3 3 2 1 1 1 2 2 2 2 1 1 1 1 2 3 3 3 2 3 3 3 3 2 2 2 3 3 3 4 5 5
1 1 1 2 2 2 2 2 1 2 2 2 2 2 1 1 1 0 1 1 1 3 4 3 3 3 3 3 3 3 3 3 3 3 3 3 4 6
2 1 1 1 1 2 2 2 1 0 1 1 1 1 1 1 1 1 0 0 1 2 3 3 2 2 2 3 3 3 3 3 3 4 3 3 4 5
4 1 1 1 2 2 1 1 1 1 1 1 1 1 1 1 1 1 1 1 2 3 3 2 1 2 2 3 4 4 4 4 3 3 3 4 5 5
3 1 1 2 2 1 1 1 1 1 1 1 1 1 1 1 1 2 2 2 2 3 3 3 2 2 2 4 4 4 4 4 3 3 4 4 6 6
2 2 2 2 1 1 1 1 1 1 1 1 1 1 1 1 1 2 2 2 3 3 3 3 2 3 5 5 4 4 5 5 4 4 4 4 3 4
2 2 2 2 2 2 2 2 2 2 2 1 2 2 2 2 2 3 3 4 3 3 4 5 5 6 3 1 2 3 4 6 6 4 4 3 3 2
1 2 2 2 2 2 2 2 2 2 2 2 3 3 3 3 3 4 4 3 3 4 4 4 4 2 1 2 4 4 4 4 4 5 5 5 4 5
3 2 3 2 2 2 2 2 3 2 3 3 3 3 3 3 4 4 4 4 4 4 4 3 3 1 2 3 4 4 4 3 2 2 4 6 7 9
Wind_Direction
217 214 218 227 215 212 203 193 193 240 266 258 260 260 238 230 233 228 230 232 228 225 224 227 228 227 227 228 229 229 231 232 232 233 233 233 233 233
215 213 221 226 222 212 205 204 194 201 240 248 241 251 257 263 252 239 236 236 227 221 220 223 225 223 224 227 227 228 229 231 231 231 231 232 231 228
225 217 224 221 218 220 212 207 208 196 230 259 247 249 245 255 270 260 259 245 238 226 225 228 227 224 226 228 227 226 227 230 231 230 229 228 226 223
226 217 224 221 216 226 219 222 224 214 214 246 261 250 239 232 234 246 257 255 245 235 230 230 227 229 228 230 230 230 230 232 232 228 223 219 218 220
219 216 222 214 222 228 227 234 238 237 216 224 253 255 253 243 250 268 260 262 261 252 239 235 231 231 231 233 235 233 233 233 230 226 222 217 215 216
219 219 222 214 217 219 227 232 228 223 216 224 247 255 259 256 217 242 265 262 261 257 248 244 240 237 238 238 237 236 235 234 231 226 221 217 214 214
222 221 220 213 212 214 218 223 216 216 220 226 240 254 257 246 233 225 236 252 257 230 230 241 229 236 246 246 242 242 237 234 231 226 222 220 216 215
214 223 224 228 223 225 224 222 212 216 224 229 240 243 250 244 238 229 222 231 257 234 200 249 218 239 248 245 242 239 236 234 231 226 223 221 218 216
213 217 230 236 226 229 240 250 247 239 227 223 232 240 240 233 223 231 224 221 239 222 193 252 237 248 255 256 245 236 232 232 231 225 221 218 215 212
213 211 209 224 226 220 232 264 280 277 259 237 230 240 242 232 218 222 223 230 255 244 185 229 242 250 266 256 244 234 234 233 227 221 217 216 213 211
226 208 196 209 233 209 193 244 283 288 294 280 257 254 256 248 223 200 203 212 258 260 213 200 229 257 263 263 258 243 236 234 227 220 217 215 213 208
258 243 215 211 228 215 203 220 255 270 289 313 315 309 280 261 230 203 199 209 235 249 228 198 218 218 270 259 252 253 243 237 228 227 226 219 211 200
231 249 250 234 233 241 225 226 242 251 270 276 291 305 307 287 265 241 210 202 220 245 228 189 208 211 219 260 269 237 221 222 219 228 225 222 216 205
219 231 237 235 250 262 257 252 250 248 231 260 285 290 290 285 273 261 252 243 231 236 232 198 204 215 223 253 267 255 227 222 216 221 216 217 218 217
215 233 241 249 271 276 272 257 229 198 186 212 250 261 264 267 287 311 307 294 303 295 268 238 220 227 226 240 248 242 256 243 208 203 219 221 217 208
207 279 278 271 284 273 274 265 238 205 195 213 234 258 300 345 331 297 275 302 312 308 309 282 236 214 238 251 239 247 233 223 219 216 217 234 227 213
151 79 30 9 344 331 318 302 287 241 215 221 221 259 298 305 295 313 301 294 259 275 298 317 313 283 251 238 248 248 243 249 232 211 210 236 243 228
140 150 201 229 235 249 261 285 273 237 227 211 211 220 247 261 279 310 318 250 264 276 280 285 313 347 338 305 246 237 246 248 248 214 199 224 249 243
139 170 201 226 241 237 206 201 219 234 195 172 179 207 226 255 263 273 272 275 270 276 282 280 266 233 264 291 289 250 238 253 245 240 225 221 236 239
164 182 194 195 207 215 200 198 207 224 209 190 198 225 236 250 266 275 272 263 267 273 286 288 268 244 238 247 261 281 251 234 234 239 246 239 251 257
183 189 195 191 199 206 206 201 194 202 224 225 236 246 244 241 257 264 267 274 271 273 278 278 273 267 252 228 283 288 284 250 232 229 230 230 246 251
187 198 205 208 209 209 213 216 212 216 229 240 246 249 250 246 251 260 264 269 266 266 272 282 294 290 224 238 263 275 289 302 285 261 232 219 213 217
199 203 204 207 210 209 212 215 216 229 231 232 240 247 247 249 253 255 258 257 259 267 278 288 297 274 252 247 256 265 269 284 303 307 299 283 257 247
Height
1533 1534 1535 1535 1535 1535 1536 1536 1536 1533 1532 1532 1532 1532 1532 1532 1532 1531 1531 1530 1529 1529 1528 1529 1529 1529 1528 1528 1528 1528 1527 1527 1527 1527 1528 1528 1528 1529
1529 1530 1531 1531 1531 1532 1531 1532 1531 1531 1529 1528 1528 1528 1528 1528 1528 1528 1527 1527 1526 1525 1525 1525 1525 1525 1525 1524 1524 1524 1524 1523 1523 1523 1524 1524 1524 1525
1525 1526 1526 1527 1527 1527 1527 1527 1527 1527 1525 1524 1525 1524 1525 1524 1524 1524 1523 1523 1522 1522 1522 1521 1521 1521 1521 1521 1520 1520 1520 1520 1519 1519 1519 1520 1520 1520
1521 1521 1522 1522 1522 1523 1523 1523 1522 1522 1522 1520 1520 1520 1520 1520 1519 1519 1519 1519 1518 1518 1518 1517 1517 1517 1517 1517 1517 1516 1516 1516 1515 1515 1515 1515 1516 1516
1517 1517 1518 1518 1518 1518 1518 1518 1518 1518 1517 1516 1515 1516 1515 1515 1515 1515 1514 1514 1514 1514 1513 1513 1513 1513 1512 1512 1512 1512 1512 1511 1511 1511 1511 1511 1511 1512
1512 1513 1513 1513 1513 1514 1514 1514 1514 1514 1513 1512 1511 1511 1510 1510 1510 1509 1509 1509 1509 1509 1509 1509 1508 1508 1508 1508 1508 1508 1507 1507 1507 1507 1507 1507 1507 1507
1508 1508 1509 1509 1509 1510 1510 1509 1510 1509 1508 1508 1507 1506 1506 1506 1505 1505 1505 1505 1505 1505 1505 1504 1504 1504 1504 1503 1503 1503 1502 1502 1502 1502 1502 1503 1503 1503
1504 1504 1505 1505 1506 1506 1506 1506 1506 1505 1504 1503 1502 1501 1501 1501 1501 1501 1500 1500 1500 1501 1500 1500 1500 1499 1499 1499 1499 1498 1498 1498 1498 1497 1498 1498 1498 1499
1500 1500 1501 1501 1501 1501 1501 1501 1501 1500 1500 1499 1498 1497 1497 1497 1497 1496 1496 1495 1495 1496 1496 1494 1495 1494 1494 1494 1494 1494 1493 1493 1493 1493 1493 1493 1494 1494
1495 1496 1496 1497 1497 1497 1497 1496 1496 1495 1495 1494 1494 1493 1493 1493 1493 1493 1492 1491 1491 1491 1491 1490 1490 1489 1489 1489 1489 1488 1488 1489 1488 1488 1488 1489 1489 1490
1491 1492 1492 1492 1492 1493 1493 1492 1491 1491 1491 1490 1490 1489 1489 1489 1489 1488 1487 1486 1485 1486 1486 1486 1485 1484 1484 1483 1483 1483 1483 1483 1484 1484 1484 1485 1485 1485
1488 1488 1488 1488 1488 1488 1488 1487 1486 1486 1486 1485 1485 1485 1485 1484 1484 1484 1483 1482 1481 1481 1481 1481 1480 1480 1478 1478 1479 1478 1478 1478 1478 1479 1479 1480 1481 1481
1483 1484 1484 1484 1484 1484 1484 1483 1482 1482 1482 1481 1481 1480 1480 1480 1480 1480 1479 1479 1478 1477 1477 1476 1475 1475 1475 1473 1473 1474 1474 1474 1474 1474 1475 1475 1476 1477
1479 1480 1480 1480 1480 1480 1480 1479 1479 1478 1478 1477 1476 1476 1475 1475 1475 1475 1475 1475 1474 1474 1473 1472 1471 1471 1470 1469 1468 1468 1469 1469 1469 1469 1470 1470 1471 1472
1475 1476 1477 1477 1476 1476 1476 1475 1475 1474 1474 1473 1472 1472 1472 1471 1471 1471 1471 1471 1470 1470 1469 1469 1468 1467 1467 1465 1464 1464 1464 1464 1465 1465 1465 1466 1466 1467
1472 1473 1473 1473 1473 1472 1472 1471 1471 1471 1470 1470 1469 1469 1468 1468 1467 1467 1466 1466 1465 1464 1465 1465 1464 1463 1462 1461 1461 1460 1460 1459 1460 1460 1461 1461 1462 1462
1468 1469 1469 1469 1469 1469 1468 1468 1467 1467 1467 1466 1466 1465 1465 1464 1464 1464 1463 1462 1461 1460 1460 1460 1460 1459 1458 1458 1456 1456 1455 1455 1455 1456 1456 1456 1456 1457
1465 1465 1465 1466 1466 1465 1465 1465 1464 1464 1464 1463 1463 1462 1462 1461 1460 1460 1460 1459 1458 1457 1457 1456 1455 1454 1454 1453 1454 1452 1452 1451 1451 1451 1451 1451 1450 1451
1462 1462 1462 1463 1463 1462 1462 1462 1462 1462 1461 1460 1459 1459 1458 1458 1457 1457 1456 1455 1455 1454 1454 1453 1452 1451 1449 1448 1448 1449 1448 1447 1447 1447 1446 1446 1446 1446
1459 1459 1459 1460 1460 1460 1459 1459 1459 1459 1458 1457 1457 1456 1455 1455 1454 1454 1453 1452 1451 1450 1450 1449 1448 1447 1446 1445 1444 1443 1444 1443 1442 1442 1441 1441 1441 1441
1456 1456 1457 1457 1457 1457 1457 1457 1456 1455 1455 1454 1454 1453 1452 1452 1451 1451 1450 1449 1448 1447 1445 1444 1444 1444 1443 1442 1440 1438 1438 1438 1438 1437 1436 1436 1435 1435
1453 1454 1454 1454 1455 1454 1454 1454 1453 1453 1452 1452 1451 1451 1450 1449 1448 1447 1446 1445 1444 1443 1442 1441 1440 1439 1439 1438 1436 1435 1434 1433 1433 1433 1432 1432 1430 1429
1451 1452 1452 1452 1452 1451 1451 1450 1450 1449 1449 1449 1448 1447 1446 1445 1444 1443 1442 1441 1440 1439 1438 1437 1436 1435 1434 1434 1433 1431 1430 1429 1428 1428 1428 1427 1427 1426